CUTE-1 (CO-55)
1 27844U 03031E 21173.89309100 .00000057 00000-0 44994-4 0 9992
2 27844 98.6792 182.0232 0011044 66.3372 293.8964 14.22315716932752


Ligne 0
Le nom commun de l'objetCUTE-1 (CO-55)
Ligne 1
Numéro de catalogue satellite27844U
Désignateur international03031E
Année de lancement03
Numéro de lancement dans l'année031
Object du lancementE
Époque (année)21
Époque (Jour de l'année en UTC)173.89309100
1ère dérivée du mouvement moyen .00000057
2ème dérivée du mouvement moyen 00000-0
B * Terme de glissement 44994-4
Type de jeu d'éléments0
Numéro d'élément 999
Ligne 2
Numéro de catalogue satellite27844
Inclinaison de l'orbite (degrés) 98.6792
Ascension droite du nœud ascendant (degrés)182.0232
Excentricité0011044
Argument du Périgée (degrés) 66.3372
Anomalie moyenne (degrés)293.8964
Mouvement moyen (révolutions / jour)14.22315716
Numéro de révolution à l'époque93275
Valeurs déduites
Période Orbitale (en minutes)101.2 min.
Demi-grand axe (en kilomètres)7195.7 Km
Altitude à l‘Apogée (en kilomètres)832.6 Km
Altitude au Périgée (en kilomètres)816.7 Km

* Sources des TLE's : Celestrack